Forside
METAR-TAF:

METAR-TAF

Lufthavne :

Albert Lea, Minnesota, USA

Breddekreds: 43-41N, længdekreds: 093-22W, højde: 383 m

Aktuelle vejr

Denne rapport blev lavet for 19 minutter siden, kl. 07:35 UTC
Vind stille
Temperatur 2°C
Fugtighed 80%
Tryk 1013 hPa
Sigt: 16.1 km
skyfri

METAR: KAEL 290735Z AUTO 00000KT 10SM CLR 02/M01 A2990 RMK AO2

Tid: 01:54 (07:54 UTC)


TAF: fraværende

Vejrobservationer og prognoser fra mere end 4000 lufthavne (METAR og TAF).

De gule og røde prikker repræsenterer de meteorologiske stationer.

Flyt musen over at se navnet på stationen.

Så klik over at se vejr observationer og prognoser.

At skifte det kort: Klik på de grønne knapper med et sort kors for at zoome ind; på den grønne knap med en bindestreg for at zoome ud; eller på de grønne pile for tilstødende kort.


METAR-TAF: